FW9268 Weather Reports


Display with metric or nautical units.
time (UTC)temp
F
wind
direction
speed
MPH
gust
MPH
rain 1hr
in
rain 24hr
in
rain mn
in
humidity
%
barometer
mb
20260831063043 69 163 2.0 10.0 0.00 0.05 0.00 96 1020.7
20260831063013 69 163 3.0 10.0 0.00 0.05 0.00 97 1011.4
20260831061545 69 165 4.0 8.0 0.00 0.05 0.00 96 1021.0
20260831061512 69 165 3.0 8.0 0.00 0.05 0.00 97 1011.7
20260831060100 70 165 4.0 9.0 0.00 0.05 0.00 96 1021.3
20260831060011 70 139 4.0 10.0 0.00 0.05 0.00 96 1012.1
20260831054544 70 142 4.0 9.0 0.00 0.05 0.00 96 1021.4
20260831054509 70 148 5.0 9.0 0.00 0.05 0.00 96 1012.3
20260831053057 70 155 4.0 10.0 0.00 0.05 0.00 96 1021.6
20260831053007 70 157 4.0 10.0 0.00 0.05 0.00 97 1012.4
20260831051544 70 155 2.0 10.0 0.00 0.05 0.00 96 1021.9
20260831051503 70 155 3.0 10.0 0.00 0.05 0.00 97 1012.6
20260831050104 70 171 2.0 9.0 0.00 0.05 0.00 96 1022.3
20260831050001 70 173 2.0 9.0 0.00 0.05 0.00 97 1013.0
20260831044620 70 147 1.0 8.0 0.00 0.06 0.05 96 1012.9
20260831044551 70 147 2.0 8.0 0.00 0.06 0.05 96 1022.2
20260831043059 70 153 3.0 9.0 0.00 0.06 0.05 96 1013.3
20260831043052 70 144 4.0 9.0 0.00 0.06 0.05 96 1022.5
20260831041614 69 151 5.0 10.0 0.00 0.06 0.05 96 1013.3
20260831041553 69 152 2.0 9.0 0.00 0.06 0.05 96 1022.6
20260831040059 69 149 3.0 7.0 0.00 0.06 0.05 96 1013.1
20260831040052 69 147 3.0 10.0 0.00 0.06 0.05 96 1022.5
20260831034604 69 148 4.0 10.0 0.00 0.06 0.05 96 1013.0
20260831034546 69 130 3.0 10.0 0.00 0.06 0.05 96 1022.3
20260831033100 69 159 3.0 9.0 0.00 0.06 0.05 96 1022.3
20260831033058 69 146 3.0 8.0 0.00 0.06 0.05 96 1013.0
20260831031602 69 117 2.0 8.0 0.00 0.06 0.05 96 1013.1
20260831031552 69 0 3.0 8.0 0.00 0.06 0.05 96 1022.4
20260831030100 69 134 2.0 9.0 0.00 0.06 0.05 96 1013.1
20260831030052 69 134 4.0 9.0 0.00 0.06 0.05 96 1022.4
20260831024614 69 131 3.0 10.0 0.00 0.06 0.05 96 1013.2
20260831024548 70 126 2.0 10.0 0.00 0.06 0.05 95 1022.3
20260831023056 70 148 2.0 10.0 0.00 0.06 0.05 96 1013.4
20260831023045 70 179 2.0 10.0 0.00 0.06 0.05 95 1022.6
20260831021556 70 153 2.0 5.0 0.00 0.06 0.05 96 1013.2
20260831021551 69 155 2.0 7.0 0.00 0.06 0.05 95 1022.4
20260831020107 69 114 1.0 6.0 0.00 0.06 0.05 96 1013.0
20260831020052 69 113 1.0 6.0 0.00 0.06 0.05 95 1022.3
20260831014605 69 146 2.0 8.0 0.00 0.07 0.05 96 1013.1
20260831014559 69 167 2.0 8.0 0.00 0.07 0.05 95 1022.2
20260831013054 69 132 0.0 4.0 0.00 0.07 0.05 96 1012.8
20260831011604 69 96 0.0 4.0 0.00 0.07 0.05 96 1012.8
20260831011550 69 96 0.0 4.0 0.00 0.07 0.05 95 1022.0
20260831010053 69 74 1.0 4.0 0.00 0.07 0.05 96 1012.6
20260831004553 69 95 1.0 6.0 0.00 0.07 0.05 95 1012.5
20260831004546 69 94 1.0 6.0 0.00 0.07 0.05 95 1021.7
20260831003103 70 0 1.0 7.0 0.00 0.07 0.05 95 1021.6
20260831003052 70 119 1.0 7.0 0.00 0.07 0.05 95 1012.4
20260831001555 70 112 0.0 4.0 0.00 0.07 0.05 95 1012.8
20260831001549 70 0 0.0 4.0 0.00 0.07 0.05 94 1021.9
20260831000051 70 76 0.0 9.0 0.00 0.07 0.05 94 1012.6
20260831000049 70 0 1.0 9.0 0.00 0.07 0.05 94 1021.8
20260830234608 71 94 0.0 3.0 0.00 0.07 0.05 94 1012.7
20260830234552 71 94 1.0 3.0 0.00 0.07 0.05 93 1021.7
20260830233052 71 111 1.0 8.0 0.00 0.07 0.05 93 1021.7
20260830233049 71 113 1.0 6.0 0.00 0.07 0.05 93 1012.5
20260830231553 71 53 1.0 9.0 0.00 0.07 0.05 93 1021.9
20260830231548 71 53 1.0 9.0 0.00 0.07 0.05 93 1012.7
20260830230052 71 107 1.0 5.0 0.01 0.07 0.05 93 1013.0
20260830230049 71 107 0.0 5.0 0.01 0.07 0.05 93 1022.1
20260830224603 71 92 1.0 5.0 0.01 0.07 0.05 93 1021.6
20260830224550 71 92 2.0 5.0 0.01 0.07 0.05 93 1012.6
20260830223052 72 136 2.0 8.0 0.02 0.07 0.05 92 1021.3
20260830223046 72 136 1.0 8.0 0.02 0.07 0.05 93 1012.3
20260830221547 71 0 0.0 2.0 0.02 0.07 0.05 93 1021.6
20260830221545 71 138 0.0 2.0 0.02 0.07 0.05 94 1012.6
20260830220048 71 113 0.0 6.0 0.04 0.06 0.04 94 1021.1
20260830220045 71 113 1.0 6.0 0.04 0.06 0.04 94 1012.0
20260830214551 71 64 1.0 7.0 0.04 0.06 0.04 94 1020.9
20260830214544 71 63 1.0 5.0 0.04 0.06 0.04 94 1011.9
20260830213054 71 70 0.0 5.0 0.03 0.05 0.03 93 1021.0
20260830213041 71 70 0.0 5.0 0.03 0.05 0.03 94 1012.1
20260830211542 71 138 0.0 3.0 0.03 0.05 0.03 91 1021.5
20260830210101 72 78 1.0 8.0 0.00 0.02 0.00 89 1021.2
20260830210041 72 54 3.0 6.0 0.00 0.02 0.00 89 1012.2
20260830204549 72 120 1.0 8.0 0.00 0.02 0.00 89 1021.1
20260830204541 72 124 2.0 8.0 0.00 0.02 0.00 89 1012.2
20260830203046 72 0 2.0 7.0 0.00 0.02 0.00 88 1021.7
20260830203040 72 96 1.0 6.0 0.00 0.02 0.00 89 1012.5
20260830201604 72 128 3.0 9.0 0.00 0.02 0.00 88 1012.8
20260830201556 72 136 3.0 9.0 0.00 0.02 0.00 88 1021.9
20260830200105 72 130 1.0 7.0 0.00 0.02 0.00 90 1022.0
20260830200036 72 130 2.0 4.0 0.00 0.02 0.00 90 1013.1
20260830194556 71 0 0.0 6.0 0.00 0.09 0.00 90 1022.2
20260830194535 71 149 0.0 5.0 0.00 0.10 0.00 91 1013.3
20260830193044 71 9 1.0 4.0 0.00 0.09 0.00 90 1022.1
20260830193040 71 22 1.0 4.0 0.00 0.10 0.00 91 1013.3
20260830191557 71 0 0.0 7.0 0.00 0.09 0.00 91 1022.3
20260830191536 71 124 1.0 7.0 0.00 0.10 0.00 91 1013.3
20260830190044 71 168 1.0 6.0 0.00 0.09 0.00 91 1022.2
20260830190037 71 171 1.0 6.0 0.00 0.10 0.00 91 1013.4
20260830184547 70 90 1.0 7.0 0.00 0.20 0.00 91 1022.3
20260830184535 70 90 2.0 6.0 0.00 0.20 0.00 91 1013.4
20260830183045 71 96 0.0 8.0 0.00 0.20 0.00 91 1022.4
20260830183032 71 96 1.0 8.0 0.00 0.20 0.00 91 1013.6
20260830181552 71 0 1.0 8.0 0.00 0.20 0.00 90 1022.2
20260830181531 71 80 1.0 6.0 0.00 0.20 0.00 90 1013.3
20260830180041 71 139 2.0 8.0 0.00 0.20 0.00 90 1022.2
20260830180028 71 139 1.0 8.0 0.00 0.20 0.00 90 1013.3
20260830174549 71 63 1.0 11.0 0.00 0.22 0.00 91 1022.1
20260830174529 71 63 1.0 11.0 0.00 0.22 0.00 91 1013.3
20260830173102 70 0 1.0 6.0 0.00 0.22 0.00 90 1022.0
20260830173031 70 51 1.0 6.0 0.00 0.22 0.00 91 1013.2
20260830171551 70 129 2.0 8.0 0.00 0.22 0.00 91 1022.2
20260830171525 70 129 1.0 8.0 0.00 0.22 0.00 91 1013.3
20260830170054 70 116 2.0 12.0 0.00 0.22 0.00 92 1021.6
20260830170025 70 116 1.0 12.0 0.00 0.22 0.00 92 1012.7
20260830164557 70 88 2.0 9.0 0.00 0.26 0.00 92 1021.1
20260830164524 70 88 3.0 9.0 0.00 0.26 0.00 92 1012.3
20260830163056 70 134 2.0 11.0 0.00 0.26 0.00 90 1021.3
20260830163032 70 134 3.0 11.0 0.00 0.26 0.00 91 1012.5
20260830161601 70 72 2.0 9.0 0.00 0.26 0.00 91 1021.5
20260830161522 70 72 2.0 9.0 0.00 0.26 0.00 92 1012.6
20260830160043 69 63 2.0 7.0 0.00 0.26 0.00 92 1021.9
20260830160021 69 63 2.0 6.0 0.00 0.26 0.00 92 1013.1
20260830154549 69 128 2.0 8.0 0.00 0.27 0.00 93 1022.1
20260830154520 69 128 1.0 8.0 0.00 0.27 0.00 93 1013.3
20260830153050 68 36 0.0 4.0 0.00 0.27 0.00 93 1021.9
20260830153030 68 36 0.0 4.0 0.00 0.27 0.00 94 1013.2
20260830151547 68 0 1.0 8.0 0.00 0.27 0.00 94 1021.8
20260830151523 68 121 0.0 8.0 0.00 0.27 0.00 94 1012.9
20260830150108 68 103 1.0 5.0 0.00 0.27 0.00 94 1021.9
20260830150014 68 103 1.0 5.0 0.00 0.27 0.00 95 1013.1
20260830144550 67 92 0.0 4.0 0.00 0.28 0.00 95 1021.8
20260830144510 67 94 1.0 4.0 0.00 0.28 0.00 95 1013.1
20260830143049 67 98 1.0 4.0 0.00 0.28 0.00 95 1021.9
20260830143009 67 120 1.0 4.0 0.00 0.28 0.00 96 1013.1
20260830141543 66 106 1.0 4.0 0.00 0.28 0.00 96 1022.0
20260830141508 66 106 1.0 4.0 0.00 0.28 0.00 96 1013.2
20260830140040 66 0 0.0 3.0 0.00 0.28 0.00 96 1021.6
20260830140007 66 90 0.0 3.0 0.00 0.28 0.00 96 1012.8
20260830134545 66 63 1.0 6.0 0.00 0.28 0.00 96 1021.5
20260830134512 66 62 1.0 6.0 0.00 0.28 0.00 97 1012.7
20260830133043 65 63 1.0 9.0 0.00 0.28 0.00 97 1021.5
20260830133012 65 63 0.0 9.0 0.00 0.28 0.00 98 1012.7
20260830131605 64 0 3.0 9.0 0.00 0.28 0.00 97 1021.3
20260830131505 64 67 3.0 9.0 0.00 0.28 0.00 98 1012.6
20260830130100 64 32 1.0 8.0 0.00 0.28 0.00 98 1012.8
20260830130047 64 32 1.0 5.0 0.00 0.28 0.00 97 1021.5
20260830124601 64 90 0.0 3.0 0.00 0.28 0.00 98 1013.2
20260830124545 64 0 0.0 3.0 0.00 0.29 0.00 97 1021.9
20260830123103 64 88 0.0 4.0 0.00 0.28 0.00 98 1013.2
20260830123044 64 0 0.0 4.0 0.00 0.29 0.00 98 1021.8
20260830121555 64 71 0.0 2.0 0.00 0.28 0.00 98 1012.6
20260830121552 64 0 0.0 2.0 0.00 0.29 0.00 98 1021.3
20260830120055 63 68 0.0 5.0 0.00 0.28 0.00 98 1012.5
20260830120045 63 0 0.0 5.0 0.00 0.29 0.00 97 1021.3
20260830114558 63 90 0.0 4.0 0.00 0.30 0.00 98 1012.6
20260830114546 63 0 0.0 4.0 0.00 0.30 0.00 97 1021.3
20260830113049 63 135 0.0 2.0 0.00 0.30 0.00 98 1012.7
20260830113041 63 135 0.0 2.0 0.00 0.30 0.00 97 1021.5
20260830111552 64 0 0.0 1.0 0.00 0.30 0.00 97 1021.3
20260830111548 64 135 0.0 0.0 0.00 0.30 0.00 98 1012.6
20260830110049 63 135 0.0 0.0 0.00 0.30 0.00 98 1012.6
20260830104547 64 135 0.0 0.0 0.00 0.30 0.00 98 1012.7
20260830104543 64 0 0.0 0.0 0.00 0.30 0.00 97 1021.3
20260830103055 63 0 0.0 1.0 0.00 0.30 0.00 97 1021.1
20260830103047 63 135 0.0 1.0 0.00 0.30 0.00 98 1012.5
20260830101546 63 135 0.0 2.0 0.00 0.30 0.00 98 1012.3
20260830101543 63 0 0.0 2.0 0.00 0.30 0.00 97 1021.0
20260830100047 63 0 0.0 2.0 0.00 0.30 0.00 97 1020.9
20260830100045 63 136 0.0 2.0 0.00 0.30 0.00 98 1012.3
20260830094605 63 136 0.0 2.0 0.00 0.30 0.00 98 1012.6
20260830094543 63 0 0.0 2.0 0.00 0.30 0.00 97 1021.2
20260830093050 63 0 0.0 2.0 0.00 0.30 0.00 97 1021.2
20260830093044 63 136 0.0 2.0 0.00 0.30 0.00 98 1012.6
20260830091550 63 0 0.0 7.0 0.00 0.30 0.00 97 1021.0
20260830091544 63 136 0.0 2.0 0.00 0.30 0.00 97 1012.4
20260830090048 63 153 0.0 2.0 0.00 0.30 0.00 98 1012.4
20260830090042 63 0 0.0 2.0 0.00 0.30 0.00 97 1021.0
20260830084551 63 153 0.0 3.0 0.00 0.30 0.00 97 1021.0
20260830084542 63 153 0.0 3.0 0.00 0.30 0.00 98 1012.3
20260830083054 63 0 0.0 1.0 0.00 0.30 0.00 97 1021.1
20260830083041 63 153 0.0 1.0 0.00 0.30 0.00 98 1012.5
20260830081547 63 0 0.0 0.0 0.00 0.30 0.00 97 1021.4
20260830081537 63 153 0.0 0.0 0.00 0.30 0.00 98 1012.8
20260830080046 63 153 0.0 0.0 0.00 0.30 0.00 97 1012.9
20260830074603 63 0 0.0 0.0 0.00 0.30 0.00 97 1021.4
20260830074538 63 153 0.0 0.0 0.00 0.30 0.00 97 1012.8
20260830073047 64 0 0.0 0.0 0.00 0.30 0.00 97 1021.6
20260830073035 63 153 0.0 0.0 0.00 0.30 0.00 97 1013.0
20260830071544 64 0 0.0 0.0 0.00 0.30 0.00 97 1021.8
20260830071536 64 153 0.0 0.0 0.00 0.30 0.00 97 1013.2
20260830070052 64 0 0.0 0.0 0.00 0.30 0.00 96 1022.0
20260830070038 64 153 0.0 0.0 0.00 0.30 0.00 97 1013.3
20260830064615 64 0 0.0 2.0 0.00 0.30 0.00 96 1022.1
20260830064540 64 153 0.0 1.0 0.00 0.30 0.00 97 1013.6